Weather History for Sparta, WI

Change the Weather History Date:

Friday, September 6, 2013

  Actual Average Record
Temperature  
Mean Temperature 72 °F -  
Max Temperature 88 °F 76 °F 92 °F (1960)
Min Temperature 57 °F 51 °F 32 °F (1988)
Cooling Degree Days 7    
Growing Degree Days 22 (Base 50)    
Moisture  
Dew Point 56 °F    
Average Humidity 58    
Maximum Humidity 91    
Minimum Humidity 37    
Precipitation  
Precipitation 0.00 in - - ()
Sea Level Pressure  
Sea Level Pressure 30.08 in    
Wind  
Wind Speed 4 mph (SSW)    
Max Wind Speed 14 mph    
Max Gust Speed 20 mph    
Visibility 10 miles    
Events      
Averages and records for this station are not official NWS values.
T = Trace of Precipitation, MM = Missing Value Source: NWS Daily Summary

Daily Weather History Graph

Daily Weather History Graph

Search for Another Location

Airport:

Trip Planner

Search our weather history database for the weather conditions in past years. The results will help you decide how hot, cold, wet, or windy it might be!

Date:

Astronomy

Sep. 06, 2013 Rise Set
Actual Time 6:32 AM CDT 7:29 PM CDT
Civil Twilight 6:02 AM CDT 7:58 PM CDT
Nautical Twilight 5:27 AM CDT 8:33 PM CDT
Astronomical Twilight 4:50 AM CDT 9:10 PM CDT
Moon 7:49 AM CDT (9/6) 7:48 PM CDT (9/6)
Length of Visible Light 13h 55m
Length of Day
12h 57m
New Moon, 2% of the Moon is Illuminated
Sep 6
New Moon
Sep 12
First Quarter
Sep 19
Full
Sep 26
Last Quarter
Oct 4
New

Hourly Weather History & Observations

Time (CDT) Temp. Heat Index Dew Point Humidity Pressure Visibility Wind Dir Wind Speed Gust Speed Precip Events Conditions
12:15 AM 60.3 °F - 57.4 °F 90% 30.19 in 10.0 mi Calm Calm - N/A   Clear
12:35 AM 60.8 °F - 57.7 °F 90% 30.19 in 10.0 mi Calm Calm - N/A   Clear
12:55 AM 59.9 °F - 57.2 °F 91% 30.18 in 10.0 mi Calm Calm - N/A   Clear
1:15 AM 62.8 °F - 57.2 °F 82% 30.18 in 10.0 mi South 4.6 mph - N/A   Clear
1:35 AM 64.2 °F - 56.8 °F 77% 30.18 in 10.0 mi Calm Calm - N/A   Clear
1:55 AM 62.2 °F - 55.9 °F 80% 30.18 in 10.0 mi Calm Calm - N/A   Clear
2:15 AM 62.2 °F - 56.5 °F 81% 30.18 in 10.0 mi Calm Calm - N/A   Clear
2:35 AM 63.0 °F - 55.6 °F 77% 30.18 in 10.0 mi South 4.6 mph - N/A   Clear
2:55 AM 63.0 °F - 54.7 °F 74% 30.18 in 10.0 mi South 4.6 mph - N/A   Clear
3:15 AM 61.7 °F - 54.5 °F 77% 30.19 in 10.0 mi Calm Calm - N/A   Clear
3:35 AM 61.3 °F - 54.0 °F 77% 30.19 in 10.0 mi South 3.5 mph - N/A   Clear
3:55 AM 61.2 °F - 53.1 °F 75% 30.19 in 10.0 mi South 3.5 mph - N/A   Clear
4:15 AM 60.4 °F - 52.2 °F 74% 30.19 in 10.0 mi South 3.5 mph - N/A   Clear
4:35 AM 60.8 °F - 51.1 °F 70% 30.19 in 10.0 mi South 3.5 mph - N/A   Clear
4:55 AM 60.4 °F - 51.1 °F 71% 30.20 in 10.0 mi Calm Calm - N/A   Scattered Clouds
5:15 AM 59.2 °F - 50.7 °F 74% 30.19 in 10.0 mi Calm Calm - N/A   Scattered Clouds
5:35 AM 58.1 °F - 51.6 °F 79% 30.19 in 10.0 mi Calm Calm - N/A   Mostly Cloudy
5:55 AM 59.2 °F - 49.6 °F 71% 30.18 in 10.0 mi Calm Calm - N/A   Scattered Clouds
6:15 AM 59.9 °F - 49.1 °F 67% 30.18 in 10.0 mi Calm Calm - N/A   Clear
6:35 AM 57.6 °F - 49.6 °F 75% 30.18 in 10.0 mi Calm Calm - N/A   Clear
6:55 AM 58.3 °F - 49.1 °F 71% 30.18 in 10.0 mi Calm Calm - N/A   Clear
7:15 AM 58.8 °F - 50.0 °F 73% 30.18 in 10.0 mi Calm Calm - N/A   Clear
7:35 AM 61.5 °F - 48.4 °F 62% 30.18 in 10.0 mi Calm Calm - N/A   Clear
7:55 AM 63.0 °F - 48.4 °F 59% 30.18 in 10.0 mi Calm Calm - N/A   Clear
8:15 AM 64.2 °F - 46.9 °F 53% 30.17 in 10.0 mi South 4.6 mph - N/A   Clear
8:35 AM 65.5 °F - 47.7 °F 53% 30.16 in 10.0 mi SSW 3.5 mph - N/A   Clear
8:55 AM 66.0 °F - 48.9 °F 54% 30.15 in 10.0 mi SSW 5.8 mph - N/A   Clear
9:15 AM 67.6 °F - 50.0 °F 53% 30.15 in 10.0 mi South 8.1 mph - N/A   Clear
9:35 AM 69.8 °F - 51.1 °F 51% 30.14 in 10.0 mi South 6.9 mph - N/A   Clear
9:55 AM 70.7 °F - 52.0 °F 51% 30.14 in 10.0 mi SSW 5.8 mph - N/A   Clear
10:15 AM 72.1 °F - 53.1 °F 51% 30.13 in 10.0 mi SSW 3.5 mph - N/A   Clear
10:35 AM 72.9 °F - 53.8 °F 51% 30.13 in 10.0 mi SSW 5.8 mph - N/A   Clear
10:55 AM 75.4 °F - 54.7 °F 48% 30.13 in 10.0 mi SSW 3.5 mph - N/A   Clear
11:15 AM 76.3 °F - 55.2 °F 48% 30.12 in 10.0 mi South 6.9 mph - N/A   Clear
11:35 AM 78.6 °F - 56.7 °F 47% 30.12 in 10.0 mi SSW 5.8 mph - N/A   Clear
11:55 AM 80.2 °F 80.5 °F 57.4 °F 45% 30.11 in 10.0 mi South 8.1 mph - N/A   Clear
12:15 PM 81.9 °F 81.8 °F 57.7 °F 44% 30.10 in 10.0 mi South 8.1 mph - N/A   Clear
12:35 PM 83.3 °F 83.1 °F 58.5 °F 43% 30.09 in 10.0 mi South 5.8 mph - N/A   Clear
12:55 PM 83.5 °F 83.2 °F 58.6 °F 43% 30.08 in 10.0 mi SW 5.8 mph - N/A   Clear
1:15 PM 85.3 °F 84.8 °F 59.0 °F 41% 30.07 in 10.0 mi SSW 8.1 mph - N/A   Clear
1:35 PM 85.1 °F 84.6 °F 58.8 °F 41% 30.06 in 10.0 mi SSW 8.1 mph - N/A   Clear
1:55 PM 86.4 °F 85.6 °F 59.0 °F 39% 30.06 in 10.0 mi SSW 8.1 mph - N/A   Clear
2:15 PM 87.1 °F 86.5 °F 59.0 °F 39% 30.05 in 10.0 mi SSW 9.2 mph - N/A   Clear
2:35 PM 87.3 °F 86.3 °F 57.7 °F 37% 30.04 in 10.0 mi SW 9.2 mph - N/A   Clear
2:55 PM 87.4 °F 86.5 °F 57.9 °F 37% 30.02 in 10.0 mi WSW 9.2 mph 18.4 mph N/A   Clear
3:15 PM 87.8 °F 87.1 °F 59.0 °F 38% 30.02 in 10.0 mi SSW 8.1 mph - N/A   Clear
3:35 PM 87.4 °F 86.7 °F 59.2 °F 38% 30.02 in 10.0 mi SW 13.8 mph 19.6 mph N/A   Clear
3:55 PM 86.9 °F 86.5 °F 59.5 °F 40% 30.02 in 10.0 mi SSW 10.4 mph 19.6 mph N/A   Clear
4:15 PM 86.5 °F 86.3 °F 60.1 °F 41% 30.01 in 10.0 mi South 11.5 mph 17.3 mph N/A   Clear
4:35 PM 86.7 °F 86.5 °F 60.3 °F 41% 30.01 in 10.0 mi SW 8.1 mph - N/A   Clear
4:55 PM 86.0 °F 85.9 °F 60.4 °F 42% 30.00 in 10.0 mi SW 9.2 mph - N/A   Clear
5:15 PM 85.3 °F 85.0 °F 60.1 °F 42% 29.99 in 10.0 mi SW 11.5 mph - N/A   Clear
5:35 PM 85.5 °F 85.4 °F 60.8 °F 43% 29.99 in 10.0 mi South 8.1 mph - N/A   Clear
5:55 PM 84.6 °F 84.8 °F 61.0 °F 45% 29.99 in 10.0 mi South 9.2 mph - N/A   Clear
6:15 PM 83.8 °F 84.1 °F 61.0 °F 46% 29.98 in 10.0 mi SSW 6.9 mph 16.1 mph N/A   Clear
6:35 PM 82.9 °F 83.3 °F 60.8 °F 47% 29.98 in 10.0 mi South 8.1 mph - N/A   Clear
6:55 PM 82.0 °F 82.5 °F 60.8 °F 48% 29.98 in 10.0 mi South 5.8 mph - N/A   Clear
7:15 PM 81.0 °F 81.8 °F 61.2 °F 51% 29.98 in 10.0 mi South 5.8 mph - N/A   Clear
7:35 PM 79.5 °F - 61.3 °F 54% 29.97 in 10.0 mi South 4.6 mph - N/A   Clear
7:55 PM 77.9 °F - 61.7 °F 57% 29.97 in 10.0 mi South 3.5 mph - N/A   Clear
8:15 PM 77.0 °F - 62.1 °F 60% 29.97 in 10.0 mi South 4.6 mph - N/A   Clear
8:35 PM 77.4 °F - 62.6 °F 60% 29.98 in 10.0 mi South 4.6 mph - N/A   Scattered Clouds
8:55 PM 77.0 °F - 62.2 °F 60% 29.96 in 10.0 mi South 6.9 mph - N/A   Scattered Clouds
9:15 PM 77.2 °F - 62.1 °F 59% 29.96 in 10.0 mi South 5.8 mph - N/A   Clear
9:35 PM 76.3 °F - 61.7 °F 60% 29.96 in 10.0 mi South 6.9 mph - N/A   Clear
9:55 PM 76.5 °F - 61.2 °F 59% 29.95 in 10.0 mi South 6.9 mph - N/A   Clear
10:15 PM 76.1 °F - 60.8 °F 59% 29.95 in 10.0 mi South 8.1 mph - N/A   Clear
10:35 PM 75.7 °F - 60.3 °F 59% 29.95 in 10.0 mi South 5.8 mph - N/A   Scattered Clouds
10:55 PM 76.3 °F - 59.7 °F 56% 29.95 in 10.0 mi South 5.8 mph - N/A   Mostly Cloudy
11:15 PM 76.1 °F - 59.2 °F 56% 29.94 in 10.0 mi South 5.8 mph - N/A   Scattered Clouds
11:35 PM 76.3 °F - 58.8 °F 55% 29.95 in 10.0 mi SSW 4.6 mph - N/A   Mostly Cloudy
11:55 PM 75.9 °F - 58.6 °F 55% 29.95 in 10.0 mi Calm Calm - N/A   Mostly Cloudy